Quillayute, WA

9:43 AM PDT on March 27, 2017 (GMT -0700)
Quillayute

Weather History for KUIL - December, 2011

Change the Weather History Date:

Saturday, December 31, 2011

  Actual Average Record
Temperature  
Mean Temperature 36 °F 40 °F  
Max Temperature 41 °F 46 °F 53 °F (1979)
Min Temperature 30 °F 35 °F 9 °F (1978)
Degree Days  
Heating Degree Days 29 24  
Month to date heating degree days 766  
Since 1 July heating degree days 2478  
Cooling Degree Days 0 0  
Month to date cooling degree days 0  
Year to date cooling degree days 19  
Moisture  
Dew Point 32 °F    
Average Humidity 89    
Maximum Humidity 100    
Minimum Humidity 76    
Precipitation  
Precipitation 0.02 in 0.41 in 1.39 in (1996)
Month to date precipitation 12.99  
Year to date precipitation 99.54  
Sea Level Pressure  
Sea Level Pressure 30.29 in    
Wind  
Wind Speed 5 mph (ENE)    
Max Wind Speed 12 mph    
Max Gust Speed 16 mph    
Visibility 10 miles    
Events Rain    
T = Trace of Precipitation, MM = Missing Value Source: NWS Daily Summary

Daily Weather History Graph

Daily Weather History Graph

Search for Another Location

Airport or City:

Trip Planner

Search our weather history database for the weather conditions in past years. The results will help you decide how hot, cold, wet, or windy it might be!

Date:

Astronomy

Dec. 31, 2011 Rise Set
Actual Time 8:07 AM PST 4:34 PM PST
Civil Twilight 7:31 AM PST 5:10 PM PST
Nautical Twilight 6:52 AM PST 5:50 PM PST
Astronomical Twilight 6:14 AM PST 6:28 PM PST
Moon 11:20 AM PST (12/31) No Moon Set
Length of Visible Light 9h 39m
Length of Day
8h 26m
Waxing Crescent, 46% of the Moon is Illuminated
Dec 31
Waxing Crescent
Dec 31
First Quarter
Jan 8
Full
Jan 16
Last Quarter
Jan 22
New

Hourly Weather History & Observations

Time (PST) Temp. Windchill Dew Point Humidity Pressure Visibility Wind Dir Wind Speed Gust Speed Precip Events Conditions
12:53 AM 30.9 °F - 30.0 °F 96% 30.27 in 10.0 mi Calm Calm - N/A   Partly Cloudy
1:53 AM 32.0 °F - 30.9 °F 96% 30.30 in 10.0 mi Calm Calm - N/A   Overcast
2:53 AM 32.0 °F - 30.0 °F 92% 30.32 in 10.0 mi Calm Calm - N/A   Partly Cloudy
3:53 AM 33.1 °F 28.7 °F 32.0 °F 96% 30.35 in 10.0 mi NE 4.6 mph - N/A   Overcast
4:53 AM 33.1 °F 26.9 °F 32.0 °F 96% 30.33 in 10.0 mi East 6.9 mph - N/A   Clear
5:00 AM - - - N/A% - - North - - N/A   Unknown
5:53 AM 32.0 °F 27.5 °F 30.9 °F 96% 30.33 in 10.0 mi East 4.6 mph - N/A   Clear
6:00 AM 32.0 °F - 32.0 °F 100% - - North - - N/A   Unknown
6:53 AM 33.1 °F 28.7 °F 30.9 °F 92% 30.32 in 10.0 mi East 4.6 mph - N/A   Clear
7:53 AM 33.1 °F 27.7 °F 30.9 °F 92% 30.35 in 10.0 mi ENE 5.8 mph - N/A   Clear
8:00 AM - - - N/A% - - North - - N/A   Unknown
8:53 AM 33.1 °F 27.7 °F 32.0 °F 96% 30.36 in 10.0 mi East 5.8 mph - N/A   Scattered Clouds
9:53 AM 34.0 °F 29.8 °F 32.0 °F 92% 30.37 in 10.0 mi East 4.6 mph - N/A   Clear
10:53 AM 35.1 °F 29.3 °F 33.1 °F 92% 30.37 in 10.0 mi East 6.9 mph - N/A   Clear
11:00 AM - - - N/A% - - North - - N/A   Unknown
11:53 AM 36.0 °F 31.1 °F 34.0 °F 93% 30.35 in 10.0 mi East 5.8 mph - N/A   Clear
12:53 PM 37.9 °F 33.5 °F 36.0 °F 93% 30.33 in 10.0 mi East 5.8 mph - N/A   Clear
1:53 PM 39.9 °F 35.8 °F 36.0 °F 86% 30.31 in 10.0 mi ENE 5.8 mph - N/A   Mostly Cloudy
2:53 PM 41.0 °F 38.0 °F 34.0 °F 76% 30.31 in 10.0 mi NE 4.6 mph - N/A   Overcast
3:53 PM 39.0 °F - 34.0 °F 82% 30.30 in 10.0 mi Calm Calm - N/A   Scattered Clouds
4:53 PM 36.0 °F 31.1 °F 34.0 °F 93% 30.26 in 10.0 mi NE 5.8 mph - N/A   Clear
5:53 PM 36.0 °F 31.1 °F 32.0 °F 86% 30.25 in 10.0 mi NE 5.8 mph - N/A   Clear
6:53 PM 37.0 °F 34.5 °F 30.0 °F 76% 30.23 in 10.0 mi East 3.5 mph - N/A   Clear
7:53 PM 37.9 °F 32.7 °F 30.9 °F 76% 30.20 in 10.0 mi ENE 6.9 mph - N/A   Partly Cloudy
8:53 PM 37.9 °F 35.5 °F 30.9 °F 76% 30.21 in 10.0 mi East 3.5 mph - N/A   Overcast
9:00 PM - - - N/A% - - North - - N/A   Unknown
9:53 PM 37.9 °F 33.5 °F 30.9 °F 76% 30.22 in 10.0 mi East 5.8 mph - N/A   Overcast
10:53 PM 39.0 °F 32.8 °F 33.1 °F 79% 30.24 in 9.0 mi East 9.2 mph - 0.00 in Rain Light Rain
11:24 PM 39.2 °F 34.2 °F 35.6 °F 87% 30.22 in 10.0 mi ENE 6.9 mph - 0.01 in Rain Light Rain
11:53 PM 37.9 °F 31.5 °F 35.1 °F 89% 30.22 in 10.0 mi NE 9.2 mph - 0.02 in   Overcast